World > North America > United States > Pennsylvania
Hourly Weather in Feasterville Trevose, PennsylvaniaFeasterville Trevose, Pennsylvania Hourly Weather

Feasterville Trevose, PA Hourly Weather

Hourly Weather Feasterville Trevose, PennsylvaniaHourly Weather in Feasterville Trevose, PA
Lat: 40.14N, Lon: 75.01W  ICAO: KPNE
Web Search
Feasterville Trevose Weather Warning NWS WEATHER ALERT FOR THE FEASTERVILLE TREVOSE, PA AREA - Issued: 1103 PM EST Thu Jan 27 2022 Feasterville Trevose Weather Warning  

Ads allow us to feed your daily addiction for the world's greatest weather information. We're determined to offer quality sponsors, in the least annoying way possible.

Feedback

Feasterville Trevose Hourly Weather

36 Hour Weather Scroll   °F Click to change Feasterville Trevose hourly weather to Imperial units.Click to change Feasterville Trevose hourly weather to Metric units. °C
Currently, Overcast, temperature is 29°F-2°C, dew point 11°F-12°C, humidity 47%. Wind direction is SSW at 7 mph11 km/h with visibility of 10.00 mi16 km. Barometric pressure is 30.27 in1025 mb.

Jan 27
11:00 PM

Jan 28
MIDNIGHT

Jan 28
1:00 AM

Jan 28
2:00 AM

Jan 28
3:00 AM

Jan 28
4:00 AM

Jan 28
5:00 AM

Jan 28
6:00 AM

Jan 28
7:00 AM

Jan 28
8:00 AM

Jan 28
9:00 AM

Jan 28
10:00 AM

Jan 28
11:00 AM

Jan 28
NOON

Jan 28
1:00 PM

Jan 28
2:00 PM

Jan 28
3:00 PM

Jan 28
4:00 PM

Jan 28
5:00 PM

Jan 28
6:00 PM

Jan 28
7:00 PM

Jan 28
8:00 PM

Jan 28
9:00 PM

Jan 28
10:00 PM

Jan 28
11:00 PM

Jan 29
MIDNIGHT

Jan 29
1:00 AM

Jan 29
2:00 AM

Jan 29
3:00 AM

Jan 29
7:00 AM

Jan 29
8:00 AM

Jan 29
9:00 AM

Jan 29
1:00 PM

Jan 29
2:00 PM

Jan 29
3:00 PM


7:00 PM
Cloudy Cloudy Cloudy Cloudy Cloudy Cloudy Cloudy Cloudy Cloudy Cloudy Cloudy Cloudy Cloudy Cloudy Cloudy Cloudy Cloudy Cloudy Cloudy Mostly Cloudy Mostly Cloudy Mostly Cloudy Clear Clear Clear Clear Clear Clear Clear Clear Clear Partly Cloudy Partly Cloudy Partly Cloudy
Cloudy Cloudy Cloudy Cloudy Cloudy Cloudy Cloudy Cloudy Cloudy Cloudy Cloudy Cloudy Cloudy Cloudy Cloudy Cloudy Cloudy Cloudy Cloudy Mostly Cloudy Mostly Cloudy Mostly Cloudy Clear Clear Clear Clear Clear Clear Clear Clear Clear Partly Cloudy Partly Cloudy Partly Cloudy
32°F0°C 31°F-1°C 31°F-1°C 31°F-1°C 30°F-1°C 30°F-1°C 29°F-2°C 27°F-3°C 26°F-3°C 25°F-4°C 24°F-4°C 23°F-5°C 22°F-6°C 21°F-6°C 20°F-7°C 19°F-7°C 19°F-7°C 18°F-8°C 17°F-8°C 17°F-8°C 16°F-9°C 16°F-9°C 17°F-8°C 17°F-8°C 17°F-8°C 18°F-8°C 18°F-8°C 17°F-8°C 17°F-8°C 16°F-9°C 19°F-7°C 22°F-6°C 25°F-4°C 17°F-8°C 8°F-13°C °F-18°C
Snow Snow Snow Snow Snow Snow Snow Snow Snow Snow Snow Snow Snow Snow Snow Snow Snow Snow Snow Snow Snow - - - - - - - - - - - - - - -
67% 67% 67% 67% 67% 67% 67% 67% 67% 76% 76% 76% 76% 76% 76% 24% 24% 24% 24% 24% 24% 2% 2% 2% 2% 2% 2% 2% 2% 2% 1% 1% 1% % % %
21°F-6°C 19°F-7°C 18°F-8°C 17°F-8°C 17°F-8°C 16°F-9°C 15°F-9°C 14°F-10°C 13°F-11°C 12°F-11°C 12°F-11°C 11°F-12°C 10°F-12°C 10°F-12°C 9°F-13°C 8°F-13°C 6°F-14°C 5°F-15°C 4°F-16°C 2°F-17°C 1°F-17°C °F-18°C -2°F-19°C -2°F-19°C -3°F-19°C -2°F-19°C -1°F-18°C -1°F-18°C °F-18°C 1°F-17°C 3°F-16°C 4°F-16°C 6°F-14°C 4°F-16°C 2°F-17°C °F-18°C
63% 61% 58% 56% 58% 55% 55% 57% 57% 57% 60% 59% 59% 62% 62% 62% 56% 56% 56% 51% 51% 48% 42% 42% 40% 40% 42% 44% 46% 51% 49% 45% 44% 56% 76% **
N N N SE SSW N N N N N N N NNW NNW NW NW NW NW NW NW NW NW NW NW NW NW NW NW NW WNW WNW W W S E N
7 mph 10 mph 10 mph 10 mph 15 mph 15 mph 15 mph 17 mph 17 mph 17 mph 16 mph 16 mph 16 mph 18 mph 18 mph 18 mph 19 mph 19 mph 19 mph 17 mph 17 mph 17 mph 17 mph 17 mph 17 mph 14 mph 14 mph 14 mph 7 mph 7 mph 7 mph 9 mph 9 mph 9 mph mph 0 mph
3 mi5 km 3 mi5 km 3 mi5 km 3 mi5 km 5 mi8 km 5 mi8 km 5 mi8 km 5 mi8 km 5 mi8 km 5 mi8 km 5 mi8 km 5 mi8 km 5 mi8 km 5 mi8 km 5 mi8 km 6 mi10 km 6 mi10 km 10 mi16 km 10 mi16 km 10 mi16 km 10 mi16 km 10 mi16 km 10 mi16 km 10 mi16 km 10 mi16 km 10 mi16 km 10 mi16 km 10 mi16 km 10 mi16 km 10 mi16 km 10 mi16 km 10 mi16 km 10 mi16 km 5 mi8 km .5 mi1 km mi km
Hour (EST)
Weather
Clouds
Temperature
Precip. Type
POP
Dewpoint
Humidity
Wind Direction
Wind Speed
Visibility
POP = Probability of Precipitation. ** Indicates missing data/values from model statistics.

24 Hour Forecast

Overnight - Cloudy and not as cool. Near steady temperature in the mid 20s. Southwest winds around 5 mph.
Friday - Cloudy. A chance of light snow in the morning, then light snow likely in the afternoon. Little or no snow accumulation. Highs in the mid 30s. Northwest winds around 5 mph. Chance of snow 60%.

48 Hour Forecast API Feed


Thu, Jan 27
11:00 pm

Fri, Jan 28
Midnight

Fri, Jan 28
1:00 am

Fri, Jan 28
2:00 am

Fri, Jan 28
3:00 am

Fri, Jan 28
4:00 am

Fri, Jan 28
5:00 am

Fri, Jan 28
6:00 am

Fri, Jan 28
7:00 am

Fri, Jan 28
8:00 am

Fri, Jan 28
9:00 am

Fri, Jan 28
10:00 am

Fri, Jan 28
11:00 am

Fri, Jan 28
Noon

Fri, Jan 28
1:00 pm

Fri, Jan 28
2:00 pm

Fri, Jan 28
3:00 pm

Fri, Jan 28
4:00 pm

Fri, Jan 28
5:00 pm

Fri, Jan 28
6:00 pm

Fri, Jan 28
7:00 pm

Fri, Jan 28
8:00 pm

Fri, Jan 28
9:00 pm

Fri, Jan 28
10:00 pm

Fri, Jan 28
11:00 pm

Sat, Jan 29
Midnight

Sat, Jan 29
1:00 am

Sat, Jan 29
2:00 am

Sat, Jan 29
3:00 am

Sat, Jan 29
4:00 am

Sat, Jan 29
5:00 am

Sat, Jan 29
6:00 am

Sat, Jan 29
7:00 am

Sat, Jan 29
8:00 am

Sat, Jan 29
9:00 am

Sat, Jan 29
10:00 am

Sat, Jan 29
11:00 am

Sat, Jan 29
Noon

Sat, Jan 29
1:00 pm

Sat, Jan 29
2:00 pm

Sat, Jan 29
3:00 pm

Sat, Jan 29
4:00 pm

Sat, Jan 29
5:00 pm

Sat, Jan 29
6:00 pm

Sat, Jan 29
7:00 pm

Sat, Jan 29
8:00 pm

Sat, Jan 29
9:00 pm

Sat, Jan 29
10:00 pm
CloudyPartly CloudyPartly CloudyPartly CloudyPartly CloudyPartly CloudyPartly CloudyCloudyCloudyCloudyCloudyOvercastLight SnowOvercastCloudyLight SnowOvercastOvercastLight SnowLight SnowLight SnowModerate SnowModerate SnowModerate SnowHeavy SnowHeavy SnowHeavy SnowHeavy SnowHeavy SnowHeavy SnowHeavy SnowHeavy SnowHeavy SnowHeavy SnowHeavy SnowHeavy SnowHeavy SnowHeavy SnowHeavy SnowHeavy SnowModerate SnowModerate SnowHeavy SnowBlowing SnowBlowing SnowBlizzardClearClear
Cloudy Partly cloudy Partly cloudy Partly cloudy Partly cloudy Partly cloudy Partly cloudy Cloudy Cloudy Cloudy Cloudy Overcast Light snow Overcast Cloudy Light snow Overcast Overcast Light snow Light snow Light snow Moderate snow Moderate snow Moderate snow Heavy snow Heavy snow Heavy snow Heavy snow Heavy snow Heavy snow Heavy snow Heavy snow Heavy snow Heavy snow Heavy snow Heavy snow Heavy snow Heavy snow Heavy snow Heavy snow Moderate snow Moderate snow Heavy snow Blowing snow Blowing snow Blizzard Clear Clear
29°F
-2°C
29°F
-1°C
29°F
-1°C
29°F
-2°C
29°F
-1°C
30°F
-1°C
30°F
-1°C
30°F
-1°C
30°F
-1°C
30°F
-1°C
30°F
-1°C
31°F
-0°C
33°F
0°C
33°F
1°C
34°F
1°C
34°F
1°C
34°F
1°C
35°F
1°C
34°F
1°C
33°F
0°C
32°F
0°C
31°F
-1°C
31°F
-1°C
31°F
-1°C
31°F
-1°C
30°F
-1°C
29°F
-2°C
29°F
-2°C
27°F
-3°C
25°F
-4°C
24°F
-4°C
24°F
-5°C
24°F
-5°C
23°F
-5°C
22°F
-5°C
22°F
-6°C
22°F
-6°C
22°F
-6°C
21°F
-6°C
21°F
-6°C
20°F
-7°C
20°F
-6°C
20°F
-7°C
18°F
-8°C
17°F
-8°C
15°F
-10°C
14°F
-10°C
13°F
-10°C
9°F
-13°C
11°F
-12°C
12°F
-11°C
11°F
-12°C
10°F
-12°C
10°F
-12°C
10°F
-12°C
11°F
-12°C
12°F
-11°C
13°F
-11°C
15°F
-10°C
17°F
-8°C
19°F
-7°C
22°F
-6°C
25°F
-4°C
27°F
-3°C
28°F
-2°C
28°F
-2°C
28°F
-2°C
29°F
-2°C
30°F
-1°C
29°F
-1°C
30°F
-1°C
30°F
-1°C
29°F
-2°C
28°F
-2°C
27°F
-3°C
27°F
-3°C
24°F
-4°C
22°F
-6°C
22°F
-6°C
21°F
-6°C
21°F
-6°C
21°F
-6°C
21°F
-6°C
20°F
-7°C
20°F
-7°C
20°F
-7°C
19°F
-7°C
19°F
-7°C
17°F
-8°C
15°F
-10°C
12°F
-11°C
11°F
-12°C
10°F
-12°C
7°F
-14°C
7°F
-14°C
6°F
-15°C
30.27 in
1025 mb
30.24 in
1024 mb
30.24 in
1024 mb
30.21 in
1023 mb
30.21 in
1023 mb
30.18 in
1022 mb
30.18 in
1022 mb
30.15 in
1021 mb
30.18 in
1022 mb
30.15 in
1021 mb
30.18 in
1022 mb
30.18 in
1022 mb
30.15 in
1021 mb
30.15 in
1021 mb
30.12 in
1020 mb
30.09 in
1019 mb
30.09 in
1019 mb
30.06 in
1018 mb
30.06 in
1018 mb
30.06 in
1018 mb
30.06 in
1018 mb
30.06 in
1018 mb
30.03 in
1017 mb
30.03 in
1017 mb
30 in
1016 mb
29.97 in
1015 mb
29.97 in
1015 mb
29.94 in
1014 mb
29.88 in
1012 mb
29.85 in
1011 mb
29.83 in
1010 mb
29.77 in
1008 mb
29.77 in
1008 mb
29.77 in
1008 mb
29.74 in
1007 mb
29.74 in
1007 mb
29.74 in
1007 mb
29.74 in
1007 mb
29.71 in
1006 mb
29.68 in
1005 mb
29.68 in
1005 mb
29.68 in
1005 mb
29.71 in
1006 mb
29.71 in
1006 mb
29.74 in
1007 mb
29.77 in
1008 mb
29.8 in
1009 mb
29.8 in
1009 mb
42%46%47%46%44%43%44%45%46%49%51%55%57%63%69%74%77%77%80%87%91%94%97%96%95%95%93%92%91%87%88%90%90%91%93%92%93%93%93%92%87%78%73%71%72%73%72%71%
SSWSSWSSWSSWSSWSWSWSSWSWSWWSWWWNWWNWWNWWWNNWNNENENENNENNENNENNENNENNENNENNENNENNNNNNNWNNWNNWNNWNWNWNWNWNWNWNWNWNW
6 mph
9 km/h
5 mph
9 km/h
5 mph
8 km/h
5 mph
8 km/h
5 mph
8 km/h
5 mph
8 km/h
4 mph
7 km/h
4 mph
6 km/h
4 mph
6 km/h
3 mph
5 km/h
3 mph
5 km/h
4 mph
6 km/h
3 mph
5 km/h
4 mph
6 km/h
3 mph
5 km/h
3 mph
5 km/h
2 mph
3 km/h
2 mph
3 km/h
2 mph
3 km/h
2 mph
3 km/h
3 mph
5 km/h
4 mph
6 km/h
4 mph
7 km/h
6 mph
10 km/h
7 mph
12 km/h
9 mph
14 km/h
10 mph
15 km/h
10 mph
17 km/h
13 mph
22 km/h
14 mph
22 km/h
15 mph
23 km/h
16 mph
26 km/h
15 mph
24 km/h
15 mph
24 km/h
14 mph
23 km/h
15 mph
24 km/h
15 mph
24 km/h
15 mph
24 km/h
15 mph
25 km/h
16 mph
26 km/h
16 mph
26 km/h
16 mph
26 km/h
16 mph
26 km/h
17 mph
28 km/h
17 mph
27 km/h
17 mph
28 km/h
17 mph
27 km/h
17 mph
27 km/h
0%0%0%0%0%0%0%0%0%0%0%0%0%0%0%0%0%0%0%0%0%0%0%0%0%0%0%0%0%0%0%0%0%0%0%0%0%0%0%0%0%0%0%0%0%0%0%0%
6 mi
10 km
6 mi
10 km
6 mi
10 km
6 mi
10 km
6 mi
10 km
6 mi
10 km
6 mi
10 km
6 mi
10 km
6 mi
10 km
6 mi
10 km
6 mi
10 km
6 mi
10 km
6 mi
10 km
6 mi
10 km
6 mi
10 km
6 mi
10 km
6 mi
10 km
6 mi
10 km
6 mi
10 km
6 mi
10 km
6 mi
10 km
3 mi
5 km
3 mi
5 km
3 mi
5 km
1 mi
2 km
1 mi
2 km
1 mi
2 km
1 mi
2 km
1 mi
2 km
1 mi
2 km
1 mi
2 km
1 mi
2 km
1 mi
2 km
1 mi
2 km
1 mi
2 km
1 mi
2 km
1 mi
2 km
1 mi
2 km
1 mi
2 km
1 mi
2 km
3 mi
5 km
3 mi
5 km
1 mi
2 km
1 mi
2 km
1 mi
2 km
0 mi
0 km
6 mi
10 km
6 mi
10 km

Day/Time
Weather
Condition
Temperature
Dew Point
Pressure
Humidity
Wind Direction
Wind Speed
Prob Precip %
Visibility
Prob Precip % = Probability of Precipitation.